[[{"header":{"parameterUnit":"m.s-1","parameterCategory":1,"la1":30.2991,"la2":30.254,"lo1":-89.0895,"lo2":-89.0444,"dy":0.0017,"dx":0.0017,"nx":28,"ny":28,"refTime":"2024-07-10T03:00:00:Z","depth":0,"parameterNumber":2,"parameterNumberName":"U-component_of_WINDS"},"data":[0,0,0,0,0,0,0,0,0,0,0,0,0,0,0,0,0,0,0,0,0,0,0,0,0,0,0,0,0,0,0,0,0,0,0,0,0,0,0,0,0,0,0,0,0,0,0,0,0,0,0,0,0,0,0,0,0,0,0.2382,0.2383,0,0.2474,0.2475,0.2476,0.2498,0.2498,0.2497,0.2497,0.2591,0.2594,0.2597,0,0,0,0,0,0,0,0,0,0,0,0,0,0.2224,0.2226,0.2382,0.2383,0.2384,0.2474,0.2475,0.2476,0.2498,0.2498,0.2497,0.2496,0.259,0.2593,0.2597,0,0,0,0,0,0,0,0,0,0,0,0,0,0.2302,0.2227,0.2381,0.2406,0.2409,0.2474,0.2475,0.2477,0.2499,0.2498,0.2497,0.2496,0.2588,0.2593,0.2597,0.2644,0,0,0.2612,0.2614,0,0,0,0,0,0,0,0,0.2297,0.2307,0.2401,0.2404,0.2408,0.2474,0.2454,0.2533,0.2499,0.2465,0.2497,0.2495,0.2552,0.256,0.2579,0.2649,0.2653,0.2612,0.2615,0.2617,0.2618,0,0,0,0,0,0,0,0.2292,0.2304,0.2418,0.2402,0.2407,0.2412,0.2422,0.2469,0.2512,0.2467,0.2469,0.248,0.2554,0.2575,0.2582,0.2654,0.2612,0.2616,0.2619,0.2621,0.2766,0.2767,0,0,0,0,0,0,0.2282,0.2299,0.2415,0.2421,0.2349,0.2415,0.2427,0.2453,0.2512,0.252,0.2481,0.2481,0.2567,0.2576,0.2585,0.2643,0.2617,0.2621,0.2624,0.2764,0.2766,0.2767,0,0,0,0,0,0,0.2279,0.2292,0.2411,0.2361,0.2376,0.2419,0.2449,0.2456,0.2476,0.2522,0.253,0.2494,0.2567,0.2579,0.2629,0.2647,0.2623,0.2627,0.2763,0.2765,0.2766,0.2759,0,0,0,0,0,0,0.2274,0.2291,0.2309,0.2361,0.2379,0.2454,0.245,0.2458,0.2484,0.2485,0.2536,0.2544,0.2567,0.2622,0.2634,0.2652,0.2631,0.2762,0.2764,0.2766,0.2758,0.2761,0.2763,0,0,0,0,0,0.2268,0.2304,0.231,0.2324,0.2403,0.2455,0.2465,0.2492,0.2486,0.2504,0.2534,0.2542,0.2643,0.2627,0.264,0.2661,0.2761,0.2763,0.2766,0.2757,0.276,0.2763,0,0,0,0,0,0,0.2253,0.2311,0.2319,0.2372,0.2408,0.2459,0.2483,0.2494,0.2533,0.2532,0.2562,0.2574,0.2622,0.2647,0.2628,0.2709,0.2702,0.2707,0.2691,0.2694,0.2696,0.2689,0.2635,0,0,0,0,0,0.2256,0.2294,0.2343,0.2385,0.2403,0.244,0.2464,0.2481,0.252,0.2535,0.2568,0.2606,0.2645,0.2671,0.2711,0.2762,0.2773,0.2783,0.2785,0.2786,0.279,0.2818,0.2823,0.2775,0.2775,0.2775,0,0,0.2262,0.2299,0.2321,0.2383,0.2413,0.2451,0.2453,0.2493,0.2522,0.2541,0.2591,0.2616,0.266,0.2711,0.2735,0.2733,0.2806,0.2789,0.279,0.2793,0.2821,0.2826,0.283,0.2777,0.2776,0.2776,0,0,0.2293,0.2325,0.2363,0.2393,0.2439,0.2464,0.2473,0.2522,0.2539,0.259,0.2605,0.2639,0.2708,0.2738,0.2762,0.2804,0.2814,0.2816,0.2827,0.2854,0.2858,0.2862,0.2876,0.2881,0.282,0.282,0.282,0,0.2295,0.2354,0.2381,0.2421,0.2448,0.2467,0.2506,0.2534,0.259,0.2608,0.2605,0.269,0.2721,0.2779,0.2789,0.2809,0.282,0.281,0.2856,0.2859,0.2863,0.2877,0.2882,0.282,0.282,0.282,0.282,0,0.2353,0.2394,0.2419,0.2473,0.2502,0.2541,0.2574,0.2601,0.2615,0.264,0.269,0.2728,0.2775,0.279,0.2805,0.285,0.2847,0.2849,0.2843,0.2867,0.288,0.2886,0.282,0.282,0.282,0.282,0,0,0.2376,0.2445,0.2454,0.2478,0.253,0.2562,0.2602,0.2648,0.267,0.2708,0.2741,0.2799,0.2801,0.2828,0.2847,0.2871,0.29,0.287,0.2871,0.2873,0.2952,0.2949,0.2955,0.2907,0.2908,0.2909,0.2948,0,0.2413,0.2485,0.2511,0.257,0.2607,0.2626,0.2661,0.2696,0.272,0.2755,0.2781,0.2821,0.2821,0.2838,0.2863,0.2891,0.2916,0.2889,0.2938,0.2939,0.2925,0.2962,0.296,0.2994,0.2953,0.2954,0.2955,0,0.2465,0.2504,0.2566,0.2613,0.263,0.2661,0.2705,0.2738,0.2778,0.2794,0.2825,0.2841,0.2883,0.2874,0.2932,0.2913,0.2934,0.2952,0.2954,0.2958,0.2948,0.2967,0.3006,0.3011,0.2964,0.2963,0.2962,0,0.2474,0.2543,0.2589,0.2609,0.2665,0.2686,0.2711,0.275,0.2776,0.2815,0.2831,0.2874,0.2897,0.293,0.2957,0.2949,0.3012,0.3006,0.3026,0.3025,0.3038,0.3036,0.308,0.3053,0.3053,0.3053,0.3053,0,0.2512,0.2549,0.2594,0.2622,0.2664,0.2693,0.2734,0.276,0.2795,0.2828,0.2847,0.2878,0.2913,0.2948,0.2969,0.3013,0.3024,0.3037,0.3042,0.3035,0.3033,0.3049,0.3047,0.3054,0.3054,0.3053,0.3053,0,0.2529,0.2561,0.2612,0.2661,0.2674,0.2703,0.2745,0.2773,0.2798,0.284,0.2851,0.289,0.2932,0.2963,0.3017,0.3032,0.3078,0.3084,0.3065,0.3067,0.3085,0.3082,0.3139,0.3148,0.3116,0.3116,0.3116,0,0.2551,0.258,0.2632,0.2656,0.268,0.2718,0.2745,0.2775,0.2801,0.285,0.2871,0.2915,0.2951,0.3018,0.3051,0.3092,0.3098,0.3115,0.3105,0.3096,0.3098,0.3095,0.3098,0.3117,0.3117,0.3117,0.3117,0,0.2585,0.2599,0.2637,0.268,0.2711,0.2746,0.2782,0.28,0.2836,0.2865,0.2908,0.2937,0.2992,0.3035,0.308,0.3104,0.3117,0.312,0.3127,0.3119,0.3107,0.3113,0.3068,0.3119,0.3119,0.3119,0.3118,0.3118,0.2605,0.2631,0.2672,0.2713,0.2743,0.2776,0.2804,0.2833,0.2869,0.2917,0.2933,0.2977,0.3017,0.3078,0.3103,0.3138,0.3138,0.3148,0.315,0.3152,0.3151,0.3102,0.3147,0.3147,0.3147,0.3147,0.3147,0,0.2639,0.2666,0.2704,0.2753,0.2785,0.2795,0.2834,0.286,0.29,0.2935,0.2971,0.302,0.3062,0.3098,0.3141,0.3162,0.3169,0.3172,0.317,0.3176,0.3149,0.3139,0.3166,0.3166,0.3166,0.3166,0.3166,0.3166,0.2661,0.2706,0.2725,0.2785,0.2812,0.2856,0.2878,0.2908,0.2937,0.2991,0.3026,0.3049,0.3085,0.3131,0.3169,0.3178,0.3193,0.3195,0.3206,0.318,0.3178,0.3175,0.3166,0.3198,0.3198,0.3229,0.3229,0.323]},{"header":{"parameterUnit":"m.s-1","parameterCategory":1,"la1":30.2991,"la2":30.254,"lo1":-89.0895,"lo2":-89.0444,"dy":0.0017,"dx":0.0017,"nx":28,"ny":28,"refTime":"2024-07-10T03:00:00:Z","depth":0,"parameterNumber":3,"parameterNumberName":"V-component_of_WINDS"},"data":[0,0,0,0,0,0,0,0,0,0,0,0,0,0,0,0,0,0,0,0,0,0,0,0,0,0,0,0,0,0,0,0,0,0,0,0,0,0,0,0,0,0,0,0,0,0,0,0,0,0,0,0,0,0,0,0,0,0,2.1124,2.1123,0,2.103,2.1029,2.1028,2.0949,2.0948,2.0947,2.0946,2.0847,2.0845,2.0843,0,0,0,0,0,0,0,0,0,0,0,0,0,2.1231,2.123,2.1124,2.1123,2.1121,2.103,2.1029,2.1027,2.0949,2.0948,2.0947,2.0946,2.0847,2.0845,2.0843,0,0,0,0,0,0,0,0,0,0,0,0,0,2.1166,2.1229,2.1124,2.1071,2.1066,2.103,2.1029,2.1027,2.0949,2.0948,2.0946,2.0945,2.0848,2.0845,2.0842,2.0851,0,0,2.0834,2.0833,0,0,0,0,0,0,0,0,2.1169,2.1162,2.108,2.1075,2.1068,2.1,2.103,2.0968,2.0949,2.0993,2.0946,2.0945,2.0898,2.0891,2.0876,2.0846,2.0842,2.0834,2.0832,2.0831,2.083,0,0,0,0,0,0,0,2.1174,2.1165,2.1086,2.1079,2.1072,2.1051,2.104,2.1018,2.0954,2.0989,2.0983,2.0973,2.0895,2.0879,2.0873,2.084,2.0834,2.0831,2.083,2.0829,2.0809,2.0811,0,0,0,0,0,0,2.1187,2.117,2.1089,2.1084,2.1117,2.105,2.1038,2.1023,2.0954,2.0942,2.0975,2.097,2.0885,2.0877,2.087,2.0873,2.0831,2.0828,2.0827,2.0808,2.081,2.0811,0,0,0,0,0,0,2.119,2.1181,2.1093,2.1125,2.1112,2.105,2.1033,2.1022,2.1006,2.0943,2.0931,2.0971,2.0883,2.0874,2.0856,2.0869,2.0827,2.0824,2.0807,2.0809,2.081,2.0881,0,0,0,0,0,0,2.1193,2.1182,2.1186,2.1126,2.1111,2.1082,2.1034,2.1021,2.1002,2.0995,2.0936,2.0925,2.0882,2.086,2.0853,2.0864,2.0822,2.0805,2.0808,2.081,2.0878,2.0885,2.0892,0,0,0,0,0,2.1197,2.1209,2.1187,2.1177,2.1114,2.1083,2.1075,2.1025,2.1003,2.1005,2.0965,2.0927,2.0869,2.0859,2.085,2.0861,2.0804,2.0807,2.081,2.0874,2.0884,2.0892,0,0,0,0,0,0,2.1272,2.1201,2.1174,2.1168,2.1132,2.107,2.1072,2.1037,2.1007,2.1002,2.0941,2.0928,2.0916,2.0887,2.0877,2.0864,2.0831,2.0832,2.0884,2.0892,2.0899,2.0906,2.082,0,0,0,0,0,2.1288,2.127,2.1208,2.1208,2.1192,2.1135,2.112,2.1085,2.1045,2.1029,2.0987,2.0949,2.0922,2.0905,2.0877,2.0873,2.0858,2.0876,2.0883,2.0889,2.089,2.0884,2.089,2.082,2.082,2.0819,0,0,2.132,2.1279,2.1271,2.1222,2.119,2.1171,2.1123,2.1105,2.109,2.1026,2.1007,2.0975,2.0928,2.0917,2.0909,2.0891,2.0906,2.0892,2.0898,2.0895,2.0887,2.0894,2.09,2.0821,2.0821,2.0821,0,0,2.1369,2.1337,2.1332,2.1302,2.1255,2.1217,2.1216,2.1158,2.1135,2.1114,2.1065,2.1046,2.1001,2.0969,2.0947,2.0983,2.0946,2.0975,2.1013,2.1007,2.1012,2.1017,2.1028,2.1033,2.0977,2.0977,2.0977,0,2.1415,2.1386,2.1334,2.1319,2.1298,2.124,2.1234,2.1206,2.1152,2.1138,2.1119,2.1061,2.1025,2.1005,2.1013,2.0998,2.0993,2.0981,2.1016,2.102,2.1024,2.1033,2.1038,2.0981,2.098,2.098,2.098,0,2.1443,2.1424,2.1425,2.1375,2.1354,2.1344,2.1289,2.1274,2.1241,2.1204,2.1183,2.1139,2.1099,2.1092,2.1059,2.1066,2.1056,2.1028,2.0994,2.1035,2.1043,2.1046,2.0986,2.0985,2.0984,2.0983,0,0,2.1536,2.1457,2.1459,2.1434,2.1378,2.1361,2.1347,2.131,2.1297,2.1261,2.1247,2.121,2.1182,2.1158,2.112,2.1116,2.1144,2.1087,2.1085,2.1098,2.1147,2.1168,2.1174,2.112,2.1121,2.1121,2.115,0,2.1575,2.1548,2.1501,2.1488,2.1469,2.1413,2.14,2.1363,2.1329,2.1306,2.1267,2.1241,2.1207,2.1192,2.1185,2.1143,2.1153,2.114,2.1104,2.1104,2.1117,2.1178,2.1201,2.1231,2.1153,2.1154,2.1154,0,2.1617,2.1585,2.1571,2.1514,2.1504,2.1494,2.1455,2.1434,2.139,2.1365,2.1337,2.1296,2.1277,2.1247,2.1218,2.121,2.1193,2.117,2.1169,2.1163,2.1131,2.1172,2.1239,2.1243,2.1159,2.1159,2.1158,0,2.1684,2.1638,2.1623,2.1604,2.1538,2.1532,2.1504,2.1459,2.1439,2.1404,2.139,2.1354,2.1333,2.1305,2.1255,2.1238,2.1231,2.1197,2.1208,2.1209,2.1208,2.1209,2.1272,2.1199,2.1199,2.1199,2.1199,0,2.1731,2.1725,2.1652,2.1643,2.1633,2.1578,2.1569,2.1535,2.1496,2.1478,2.1427,2.1411,2.1346,2.1322,2.1283,2.1264,2.1255,2.1233,2.1222,2.1237,2.124,2.1224,2.122,2.12,2.12,2.12,2.12,0,2.1805,2.1756,2.1736,2.1675,2.166,2.1655,2.1602,2.159,2.1552,2.153,2.1521,2.1461,2.143,2.1378,2.1331,2.1304,2.1292,2.1275,2.1307,2.1301,2.1314,2.1313,2.1368,2.1372,2.1299,2.13,2.13,0,2.1838,2.1831,2.177,2.1754,2.1728,2.1705,2.1684,2.1629,2.1609,2.1558,2.1552,2.1517,2.1485,2.1438,2.1389,2.1353,2.1333,2.1355,2.1327,2.1342,2.1332,2.1332,2.133,2.1361,2.1362,2.1363,2.1364,0,2.1901,2.1877,2.1849,2.1813,2.179,2.1759,2.1725,2.1715,2.1652,2.1632,2.1599,2.1576,2.1528,2.1493,2.1449,2.1418,2.138,2.1373,2.1373,2.1388,2.1406,2.1395,2.1323,2.1372,2.1371,2.1371,2.137,2.137,2.1953,2.1945,2.19,2.187,2.1839,2.1808,2.1793,2.1754,2.1726,2.1684,2.1653,2.1622,2.1576,2.1514,2.1486,2.146,2.1442,2.1443,2.1443,2.1444,2.1449,2.1411,2.1452,2.1451,2.1451,2.1451,2.1451,0,2.2012,2.1981,2.1954,2.1909,2.1885,2.1852,2.1812,2.1795,2.1769,2.173,2.1701,2.1663,2.1628,2.1577,2.1538,2.1527,2.1508,2.1519,2.1518,2.1511,2.1467,2.147,2.1534,2.1534,2.1534,2.1534,2.1534,2.1534,2.204,2.2023,2.1993,2.1959,2.1927,2.1897,2.1877,2.1848,2.1816,2.1777,2.1748,2.1715,2.1671,2.1628,2.1594,2.158,2.1567,2.1583,2.1563,2.1522,2.1515,2.1507,2.151,2.1581,2.1581,2.1608,2.1609,2.1609]}]]